{"data":{"norad_id":64684,"epoch":"2026-09-20T09:24:49.883328Z","epoch_age_seconds":140877,"freshness":"FRESH","line1":"1 64684U 25139W   26263.39224402  .00013067  00000+0  39719-3 0  9991","line2":"2 64684  53.1588 298.4287 0001079  91.1961 268.9166 15.34400617 70156","mean_motion":15.34400617,"eccentricity":0.0001079,"inclination_deg":53.1588,"raan_deg":298.4287,"arg_perigee_deg":91.1961,"mean_anomaly_deg":268.9166,"bstar":0.00039719,"rev_number":7015,"period_min":93.84772034408,"perigee_km":461.96327988965,"apogee_km":463.43953281774,"semimajor_km":6840.8384063537,"source":"CELESTRAK","updated_at":"2026-09-21T09:00:35.401042Z"}}